Home   Weather   Cape Coral   Past weeks
Flag for USA

Past Weather in Cape Coral, Florida, USA — Yesterday and Last 2 Weeks

Now
82 °F

Clear.


Feels Like: 87 °F
Forecast: 88 / 75 °F
Wind: 5 mph from Northwest

Location: Page Field

Current Time: Oct 14, 2019 at 9:47:02 pm

Latest Report: Oct 14, 2019 at 8:53 pm


Visibility: 10 mi

Pressure: 30.02 "Hg

Humidity: 74%

Dew Point: 73 °F

Location of Cape CoralLocation

Past Weather in Cape Coral — Graph

°F

Cape Coral Temperature Yesterday

Maximum temperature yesterday: 88 °F (at 1:53 pm)
Minimum temperature yesterday: 72 °F (at 6:53 am)
Average temperature yesterday: 80 °F

High & Low Weather Summary for the Past Weeks

 TemperatureHumidityPressure
High93 °F (Sep 30, 2:53 pm)94% (Oct 5, 6:53 am)30.07 "Hg (Oct 5, 6:53 am)
Low72 °F (Oct 4, 6:53 am)41% (Oct 4, 4:53 pm)29.81 "Hg (Oct 7, 1:53 pm)
Average81 °F72%29.95 "Hg
* Reported Sep 29 7:53 pm — Oct 14 7:53 pm, Cape Coral. Weather by CustomWeather, © 2019

Note: Actual official high and low records may vary slightly from our data, if they occured in-between our weather recording intervals... More about our weather records

Advertising

Cape Coral Weather History for the Previous 24 Hours

Scroll right to see more
 ConditionsComfort  
Time TempWeatherWind HumidityBarometerVisibility
7:53 pm
Mon, Oct 14
84 °FPartly cloudy.6 mph67%30.01 "Hg10 mi
6:53 pm84 °FMostly cloudy.6 mph70%30.00 "Hg10 mi
5:53 pm87 °FScattered clouds.8 mph63%29.98 "Hg10 mi
4:53 pm88 °FPartly sunny.6 mph54%29.98 "Hg10 mi
3:53 pm91 °FSunny.5 mph47%29.98 "Hg10 mi
2:53 pm91 °FScattered clouds.10 mph49%29.98 "Hg10 mi
1:53 pm90 °FBroken clouds.6 mph52%30.01 "Hg10 mi
12:53 pm89 °FSunny.No wind52%30.03 "Hg10 mi
11:53 am88 °FPassing clouds.7 mph55%30.05 "Hg10 mi
10:53 am86 °FSunny.7 mph59%30.06 "Hg10 mi
9:53 am83 °FSunny.7 mph68%30.07 "Hg10 mi
8:53 am79 °FSunny.6 mph79%30.04 "Hg10 mi
7:53 am75 °FSunny.5 mph88%30.02 "Hg10 mi
6:53 am75 °FClear.3 mph88%30.02 "Hg10 mi
5:53 am75 °FPassing clouds.No wind88%30.01 "Hg10 mi
4:53 am76 °FOvercast.3 mph85%30.00 "Hg10 mi
3:53 am76 °FPassing clouds.6 mph85%30.00 "Hg10 mi
2:53 am76 °FMostly cloudy.5 mph88%30.01 "Hg10 mi
1:53 am76 °FClear.3 mph85%30.02 "Hg10 mi
12:53 am77 °FClear.7 mph82%30.03 "Hg10 mi
11:53 pm
Sun, Oct 13
78 °FOvercast.7 mph79%30.03 "Hg10 mi
10:53 pm79 °FPartly cloudy.9 mph77%30.03 "Hg10 mi
9:53 pm80 °FMostly cloudy.10 mph74%30.03 "Hg10 mi
Weather by CustomWeather, © 2019

See weather overview